Вернуться в каталог

IRIDE-MS2-HEO-8

АктивенНаукаSSO
NORAD 64587·PAYLOAD·🇮🇹 Italy

Запущен Jun 23, 2025 с Vandenberg Space Force Base

Loading…

Ближайшие Пролёты (ближайшие 24 часа)

TLE

СвежийSource: Space-Track

Эпоха: Sep 14, 2026, 22:36 UTC

1 64587U 25135BM  26257.94189413  .00001507  00000-0  15442-3 0  9999
2 64587  97.7811  11.2480 0002271  82.1865 277.9612 14.91947750 67287

Отслеживайте IRIDE-MS2-HEO-8 в реальном времени с AllMySat

Download on the App Store